Anoka County, MN

12:23 PM CDT on July 20, 2017 (GMT -0500)
Anoka County / Blaine Airport

Weather History for KANE - February, 2014

Change the Weather History Date:

Sunday, February 2, 2014

  Actual Average Record
Temperature  
Mean Temperature 2 °F -  
Max Temperature 14 °F 25 °F 51 °F (2012)
Min Temperature -11 °F 10 °F -11 °F (2001)
Degree Days  
Heating Degree Days 64    
Moisture  
Dew Point -7 °F    
Average Humidity 80    
Maximum Humidity 92    
Minimum Humidity 53    
Precipitation  
Precipitation 0.00 in - - ()
Sea Level Pressure  
Sea Level Pressure 30.22 in    
Wind  
Wind Speed 6 mph (SW)    
Max Wind Speed 9 mph    
Max Gust Speed -    
Visibility 10 miles    
Events      
Averages and records for this station are not official NWS values.
T = Trace of Precipitation, MM = Missing Value Source: NWS Daily Summary

Daily Weather History Graph

Daily Weather History Graph

Search for Another Location

Airport or City:

Trip Planner

Search our weather history database for the weather conditions in past years. The results will help you decide how hot, cold, wet, or windy it might be!

Date:

Astronomy

Feb. 02, 2014 Rise Set
Actual Time 7:31 AM CST 5:21 PM CST
Civil Twilight 7:00 AM CST 5:53 PM CST
Nautical Twilight 6:25 AM CST 6:28 PM CST
Astronomical Twilight 5:50 AM CST 7:02 PM CST
Moon 8:47 AM CST (2/2) 9:19 PM CST (2/2)
Length of Visible Light 10h 52m
Length of Day
9h 50m
Waxing Crescent, 11% of the Moon is Illuminated
Feb 2
Waxing Crescent
Feb 6
First Quarter
Feb 14
Full
Feb 22
Last Quarter
Mar 1
New

Hourly Weather History & Observations

Time (CST) Temp. Windchill Dew Point Humidity Pressure Visibility Wind Dir Wind Speed Gust Speed Precip Events Conditions
12:14 AM -0.4 °F -15.7 °F -7.6 °F 72% 30.20 in 10.0 mi West 9.2 mph - N/A   Clear
12:34 AM -0.4 °F -14.7 °F -7.6 °F 72% 30.21 in 10.0 mi WNW 8.1 mph - N/A   Clear
12:53 AM -2.2 °F -15.6 °F -9.4 °F 71% 30.21 in 10.0 mi West 6.9 mph - N/A   Clear
1:14 AM -2.2 °F -14.2 °F -9.4 °F 71% 30.21 in 10.0 mi West 5.8 mph - N/A   Clear
1:33 AM -2.2 °F -10.4 °F -9.4 °F 71% 30.21 in 10.0 mi West 3.5 mph - N/A   Clear
1:54 AM -5.8 °F -16.7 °F -11.2 °F 77% 30.21 in 10.0 mi West 4.6 mph - N/A   Clear
2:14 AM -4.0 °F -16.3 °F -9.4 °F 78% 30.22 in 10.0 mi West 5.8 mph - N/A   Clear
2:33 AM -2.2 °F -12.5 °F -7.6 °F 78% 30.22 in 10.0 mi West 4.6 mph - N/A   Clear
2:54 AM -5.8 °F -18.4 °F -9.4 °F 84% 30.22 in 10.0 mi West 5.8 mph - N/A   Clear
3:14 AM -4.0 °F -16.3 °F -9.4 °F 78% 30.22 in 10.0 mi West 5.8 mph - N/A   Clear
3:33 AM -5.8 °F -16.7 °F -9.4 °F 84% 30.22 in 10.0 mi West 4.6 mph - N/A   Clear
3:54 AM -5.8 °F -18.4 °F -9.4 °F 84% 30.22 in 10.0 mi WSW 5.8 mph - N/A   Clear
4:14 AM -4.0 °F -16.3 °F -7.6 °F 85% 30.22 in 10.0 mi WSW 5.8 mph - N/A   Clear
4:33 AM -4.0 °F -16.3 °F -9.4 °F 78% 30.23 in 10.0 mi West 5.8 mph - N/A   Clear
4:54 AM -7.6 °F -18.8 °F -11.2 °F 84% 30.23 in 10.0 mi West 4.6 mph - N/A   Clear
5:14 AM -7.6 °F -16.5 °F -11.2 °F 84% 30.24 in 10.0 mi West 3.5 mph - N/A   Clear
5:34 AM -5.8 °F - -9.4 °F 84% 30.24 in 10.0 mi Calm Calm - N/A   Clear
5:54 AM -5.8 °F -16.7 °F -9.4 °F 84% 30.24 in 10.0 mi West 4.6 mph - N/A   Clear
6:14 AM -5.8 °F -16.7 °F -9.4 °F 84% 30.25 in 10.0 mi WSW 4.6 mph - N/A   Clear
6:33 AM -5.8 °F -16.7 °F -9.4 °F 84% 30.25 in 10.0 mi WSW 4.6 mph - N/A   Clear
6:54 AM -5.8 °F - -9.4 °F 84% 30.25 in 10.0 mi Calm Calm - N/A   Clear
7:45 AM -11.2 °F - -16.6 °F 77% 30.26 in 10.0 mi Calm Calm - N/A   Clear
8:45 AM -7.6 °F - -11.2 °F 84% 30.28 in 10.0 mi Calm Calm - N/A   Clear
9:50 AM -2.2 °F - -5.8 °F 85% 30.27 in 10.0 mi Calm Calm - N/A   Clear
10:45 AM 3.2 °F -6.2 °F -0.4 °F 85% 30.27 in 10.0 mi SW 4.6 mph - N/A   Clear
11:55 AM 8.6 °F -1.3 °F -0.4 °F 67% 30.25 in 10.0 mi SSW 5.8 mph - N/A   Clear
12:55 PM 10.4 °F -1.5 °F 1.4 °F 67% 30.24 in 10.0 mi South 8.1 mph - N/A   Clear
1:45 PM 12.2 °F -0.2 °F -0.4 °F 57% 30.22 in 10.0 mi SW 9.2 mph - N/A   Clear
3:45 PM 14.0 °F 2.0 °F -0.4 °F 53% 30.24 in 10.0 mi South 9.2 mph - N/A   Clear
9:13 PM 1.4 °F -9.9 °F -0.4 °F 92% 30.18 in 10.0 mi SSE 5.8 mph - N/A   Clear
9:34 PM 1.4 °F -9.9 °F -2.2 °F 85% 30.18 in 10.0 mi South 5.8 mph - N/A   Clear
9:54 PM 1.4 °F -8.3 °F -2.2 °F 85% 30.18 in 10.0 mi SSE 4.6 mph - N/A   Clear
10:13 PM -0.4 °F -12.0 °F -2.2 °F 92% 30.18 in 10.0 mi SSE 5.8 mph - N/A   Clear
10:34 PM 1.4 °F -8.3 °F -0.4 °F 92% 30.18 in 10.0 mi South 4.6 mph - N/A   Clear
10:54 PM 1.4 °F -8.3 °F -2.2 °F 85% 30.18 in 10.0 mi SSE 4.6 mph - N/A   Clear
11:13 PM -2.2 °F - -5.8 °F 85% 30.18 in 10.0 mi Calm Calm - N/A   Clear
11:34 PM -0.4 °F -8.3 °F -2.2 °F 92% 30.18 in 10.0 mi SE 3.5 mph - N/A   Clear
11:53 PM -2.2 °F -10.4 °F -5.8 °F 85% 30.18 in 10.0 mi SE 3.5 mph - N/A   Clear